[[{"header":{"parameterUnit":"m.s-1","parameterCategory":1,"la1":30.2991,"la2":30.254,"lo1":-89.0895,"lo2":-89.0444,"dy":0.0017,"dx":0.0017,"nx":28,"ny":28,"refTime":"2023-10-22T21:00:00:Z","depth":0,"parameterNumber":2,"parameterNumberName":"U-component_of_WINDS"},"data":[0,0,0,0,0,0,0,0,0,0,0,0,0,0,0,0,0,0,0,0,0,0,0,0,0,0,0,0,0,0,0,0,0,0,0,0,0,0,0,0,0,0,0,0,0,0,0,0,0,0,0,0,0,0,0,0,0,0,-2.2265,-2.2265,0,-2.2244,-2.2244,-2.2243,-2.225,-2.2251,-2.2251,-2.2251,-2.2227,-2.2226,-2.2225,0,0,0,0,0,0,0,0,0,0,0,0,0,-2.2311,-2.231,-2.2265,-2.2265,-2.2265,-2.2244,-2.2244,-2.2243,-2.225,-2.2251,-2.2251,-2.2252,-2.2228,-2.2226,-2.2225,0,0,0,0,0,0,0,0,0,0,0,0,0,-2.229,-2.231,-2.2265,-2.2266,-2.2265,-2.2244,-2.2244,-2.2243,-2.225,-2.2251,-2.2251,-2.2252,-2.2228,-2.2226,-2.2225,-2.2201,0,0,-2.222,-2.2219,0,0,0,0,0,0,0,0,-2.2292,-2.2289,-2.2266,-2.2265,-2.2265,-2.225,-2.2251,-2.2229,-2.225,-2.2256,-2.2251,-2.2252,-2.2234,-2.2232,-2.2227,-2.22,-2.2199,-2.222,-2.2219,-2.2218,-2.2218,0,0,0,0,0,0,0,-2.2293,-2.229,-2.2257,-2.2265,-2.2265,-2.2267,-2.2264,-2.2247,-2.2241,-2.2255,-2.2256,-2.2253,-2.2234,-2.2228,-2.2226,-2.2199,-2.222,-2.2218,-2.2218,-2.2217,-2.2154,-2.2154,0,0,0,0,0,0,-2.2295,-2.2291,-2.2257,-2.2256,-2.228,-2.2265,-2.2263,-2.2254,-2.2242,-2.224,-2.2253,-2.2254,-2.2231,-2.2228,-2.2225,-2.2198,-2.2218,-2.2217,-2.2216,-2.2155,-2.2154,-2.2154,0,0,0,0,0,0,-2.2296,-2.2292,-2.2258,-2.2274,-2.2269,-2.2264,-2.2254,-2.2254,-2.2248,-2.224,-2.2238,-2.2247,-2.2231,-2.2228,-2.2208,-2.2197,-2.2216,-2.2215,-2.2156,-2.2155,-2.2154,-2.2143,0,0,0,0,0,0,-2.2297,-2.2292,-2.2283,-2.2273,-2.2269,-2.2241,-2.2254,-2.2253,-2.2245,-2.2246,-2.2234,-2.2233,-2.2231,-2.221,-2.2206,-2.2196,-2.2213,-2.2157,-2.2155,-2.2154,-2.2144,-2.2142,-2.214,0,0,0,0,0,-2.2299,-2.228,-2.2282,-2.2278,-2.2257,-2.2241,-2.2238,-2.2237,-2.2244,-2.2235,-2.223,-2.2234,-2.2199,-2.2208,-2.2204,-2.2192,-2.2157,-2.2156,-2.2154,-2.2145,-2.2142,-2.214,0,0,0,0,0,0,-2.2286,-2.2278,-2.2281,-2.2259,-2.2251,-2.2242,-2.223,-2.2233,-2.2222,-2.2223,-2.2222,-2.2219,-2.2199,-2.2194,-2.2204,-2.217,-2.218,-2.2177,-2.2174,-2.2171,-2.2169,-2.217,-2.2212,0,0,0,0,0,-2.2281,-2.2269,-2.2262,-2.2243,-2.2239,-2.2235,-2.2228,-2.2228,-2.2219,-2.2216,-2.2209,-2.22,-2.2188,-2.2179,-2.2167,-2.2144,-2.2142,-2.2134,-2.2132,-2.213,-2.2127,-2.2117,-2.2114,-2.2148,-2.2148,-2.2148,0,0,-2.227,-2.2264,-2.2256,-2.2241,-2.2234,-2.2222,-2.2232,-2.2218,-2.2208,-2.2213,-2.2195,-2.219,-2.218,-2.2159,-2.2149,-2.2154,-2.2118,-2.2128,-2.2126,-2.2125,-2.2115,-2.2112,-2.2109,-2.2147,-2.2147,-2.2148,0,0,-2.2243,-2.2237,-2.2222,-2.2216,-2.2207,-2.2205,-2.2201,-2.2193,-2.219,-2.2172,-2.2176,-2.2165,-2.2143,-2.2136,-2.213,-2.2104,-2.2107,-2.21,-2.2087,-2.2077,-2.2074,-2.2072,-2.2064,-2.2061,-2.2098,-2.2098,-2.2098,0,-2.223,-2.2212,-2.2213,-2.2199,-2.2193,-2.2198,-2.2183,-2.2176,-2.2163,-2.2159,-2.2164,-2.2139,-2.2132,-2.2111,-2.2105,-2.2099,-2.2095,-2.2101,-2.2075,-2.2072,-2.207,-2.2062,-2.2059,-2.2097,-2.2097,-2.2097,-2.2097,0,-2.2197,-2.2184,-2.2173,-2.2162,-2.2154,-2.2139,-2.2138,-2.2131,-2.2132,-2.213,-2.2112,-2.2105,-2.2093,-2.2088,-2.2088,-2.2067,-2.207,-2.2075,-2.2085,-2.2066,-2.2059,-2.2056,-2.2096,-2.2096,-2.2097,-2.2097,0,0,-2.216,-2.2152,-2.2148,-2.2144,-2.2136,-2.2126,-2.2112,-2.2101,-2.2095,-2.2087,-2.2075,-2.2058,-2.2064,-2.2057,-2.2057,-2.2048,-2.2029,-2.2054,-2.2054,-2.205,-2.2007,-2.2004,-2.2,-2.2032,-2.2031,-2.2031,-2.2008,0,-2.2133,-2.211,-2.2111,-2.2089,-2.2078,-2.2085,-2.2073,-2.2067,-2.2065,-2.2056,-2.2053,-2.2042,-2.2049,-2.2045,-2.2037,-2.2033,-2.2021,-2.2035,-2.2021,-2.2021,-2.2024,-2.1996,-2.1991,-2.1971,-2.2005,-2.2005,-2.2004,0,-2.2098,-2.2091,-2.2068,-2.2064,-2.2059,-2.2048,-2.204,-2.2031,-2.2024,-2.2024,-2.2018,-2.202,-2.2007,-2.2017,-2.2,-2.2009,-2.2004,-2.2002,-2.2001,-2.2,-2.2011,-2.1994,-2.1964,-2.1961,-2.2,-2.2,-2.2,0,-2.2075,-2.2059,-2.2044,-2.204,-2.2034,-2.2027,-2.2024,-2.2019,-2.2013,-2.2005,-2.2002,-2.1992,-2.1987,-2.198,-2.198,-2.1988,-2.1963,-2.1973,-2.1962,-2.1962,-2.1956,-2.1957,-2.1925,-2.1953,-2.1953,-2.1953,-2.1953,0,-2.2045,-2.2031,-2.2033,-2.2024,-2.2009,-2.2012,-2.1997,-2.1995,-2.199,-2.1981,-2.1986,-2.1977,-2.1978,-2.1969,-2.1969,-2.1955,-2.1953,-2.1952,-2.1952,-2.1952,-2.1952,-2.1948,-2.195,-2.1952,-2.1952,-2.1952,-2.1952,0,-2.2015,-2.2016,-2.2001,-2.1998,-2.1997,-2.1986,-2.1983,-2.1975,-2.1975,-2.1963,-2.196,-2.1959,-2.195,-2.195,-2.1938,-2.1938,-2.1921,-2.1923,-2.1924,-2.1924,-2.1914,-2.1915,-2.1879,-2.1875,-2.1905,-2.1904,-2.1904,0,-2.1996,-2.1986,-2.1983,-2.1977,-2.1975,-2.1966,-2.196,-2.1963,-2.1958,-2.1951,-2.1944,-2.1935,-2.1928,-2.1912,-2.191,-2.1902,-2.1904,-2.1892,-2.1902,-2.1903,-2.1905,-2.1905,-2.1905,-2.1889,-2.1889,-2.1889,-2.1889,0,-2.1962,-2.1964,-2.1956,-2.195,-2.1944,-2.1939,-2.1934,-2.1929,-2.1932,-2.1925,-2.1916,-2.1911,-2.19,-2.1892,-2.1884,-2.1881,-2.1886,-2.1886,-2.1883,-2.1882,-2.1883,-2.1883,-2.1918,-2.1886,-2.1886,-2.1886,-2.1887,-2.1887,-2.1937,-2.1929,-2.1927,-2.1919,-2.1916,-2.1912,-2.1905,-2.1905,-2.1897,-2.189,-2.1892,-2.1882,-2.1878,-2.1869,-2.1866,-2.1858,-2.1862,-2.1858,-2.1857,-2.1856,-2.1855,-2.1885,-2.1857,-2.1857,-2.1857,-2.1857,-2.1857,0,-2.1904,-2.1904,-2.1897,-2.1891,-2.1885,-2.1891,-2.1887,-2.1882,-2.1873,-2.187,-2.1863,-2.1854,-2.1846,-2.1845,-2.1838,-2.1832,-2.1834,-2.183,-2.1831,-2.1831,-2.1851,-2.1855,-2.1829,-2.1829,-2.1829,-2.1829,-2.1829,-2.1829,-2.1886,-2.1874,-2.1876,-2.1863,-2.1862,-2.1853,-2.185,-2.1847,-2.1844,-2.1834,-2.1828,-2.1828,-2.1826,-2.1819,-2.1813,-2.1813,-2.181,-2.1806,-2.1806,-2.1826,-2.1829,-2.1831,-2.1835,-2.1805,-2.1805,-2.1786,-2.1786,-2.1786]},{"header":{"parameterUnit":"m.s-1","parameterCategory":1,"la1":30.2991,"la2":30.254,"lo1":-89.0895,"lo2":-89.0444,"dy":0.0017,"dx":0.0017,"nx":28,"ny":28,"refTime":"2023-10-22T21:00:00:Z","depth":0,"parameterNumber":3,"parameterNumberName":"V-component_of_WINDS"},"data":[0,0,0,0,0,0,0,0,0,0,0,0,0,0,0,0,0,0,0,0,0,0,0,0,0,0,0,0,0,0,0,0,0,0,0,0,0,0,0,0,0,0,0,0,0,0,0,0,0,0,0,0,0,0,0,0,0,0,0.5663,0.5662,0,0.5655,0.5655,0.5655,0.5726,0.5728,0.573,0.5732,0.5722,0.572,0.5717,0,0,0,0,0,0,0,0,0,0,0,0,0,0.5735,0.5733,0.5663,0.5662,0.5662,0.5655,0.5655,0.5655,0.5726,0.5728,0.573,0.5733,0.5722,0.572,0.5717,0,0,0,0,0,0,0,0,0,0,0,0,0,0.5713,0.5733,0.5663,0.5697,0.57,0.5655,0.5655,0.5655,0.5725,0.5728,0.5731,0.5734,0.5723,0.572,0.5717,0.5639,0,0,0.5707,0.5706,0,0,0,0,0,0,0,0,0.5714,0.571,0.5692,0.5694,0.5698,0.5695,0.5677,0.5649,0.5724,0.5715,0.5732,0.5735,0.571,0.5708,0.57,0.5638,0.5638,0.5707,0.5705,0.5704,0.5703,0,0,0,0,0,0,0,0.5716,0.5711,0.566,0.5691,0.5695,0.5712,0.5712,0.5672,0.5696,0.5716,0.5721,0.572,0.5712,0.5703,0.5701,0.5638,0.5707,0.5704,0.5702,0.5701,0.5511,0.5508,0,0,0,0,0,0,0.5713,0.5712,0.566,0.5659,0.5713,0.5708,0.5708,0.5692,0.5697,0.57,0.5717,0.5723,0.5707,0.5704,0.57,0.5609,0.5704,0.5701,0.5699,0.5514,0.551,0.5506,0,0,0,0,0,0,0.5714,0.5708,0.566,0.5687,0.5682,0.5704,0.5685,0.5691,0.5682,0.5698,0.5702,0.5704,0.5709,0.5705,0.5654,0.5609,0.5699,0.5697,0.5517,0.5512,0.5508,0.5424,0,0,0,0,0,0,0.5716,0.5708,0.5679,0.5686,0.5681,0.5614,0.5683,0.5689,0.5677,0.5684,0.5686,0.5689,0.5711,0.5658,0.565,0.5607,0.5694,0.5521,0.5515,0.551,0.5431,0.5417,0.5405,0,0,0,0,0,0.5718,0.5655,0.5677,0.567,0.5645,0.5611,0.5608,0.5635,0.5673,0.5643,0.5653,0.5689,0.5616,0.5652,0.5644,0.5599,0.5524,0.5517,0.551,0.5437,0.542,0.5406,0,0,0,0,0,0,0.5641,0.5656,0.5681,0.5618,0.5613,0.5623,0.5587,0.5617,0.56,0.5608,0.5642,0.5642,0.5584,0.5587,0.5627,0.5523,0.5576,0.5567,0.5523,0.5507,0.5495,0.5495,0.5692,0,0,0,0,0,0.5617,0.5589,0.5604,0.5547,0.5543,0.5565,0.5551,0.5573,0.5569,0.5567,0.5573,0.5567,0.5542,0.5525,0.5504,0.5432,0.5433,0.5397,0.5384,0.5374,0.5365,0.5327,0.5311,0.5483,0.5483,0.5483,0,0,0.5566,0.5571,0.5551,0.5531,0.553,0.5499,0.5563,0.5528,0.5505,0.5561,0.5513,0.5517,0.5513,0.5451,0.5424,0.5451,0.5318,0.5365,0.5356,0.5353,0.5318,0.5301,0.5287,0.5478,0.5479,0.548,0,0,0.5458,0.5459,0.5412,0.5409,0.5406,0.5422,0.541,0.5416,0.5421,0.5374,0.5415,0.5388,0.5346,0.534,0.5332,0.5222,0.5254,0.5214,0.5146,0.5109,0.5095,0.5083,0.5043,0.5028,0.5206,0.5206,0.5205,0,0.5394,0.5351,0.5383,0.5345,0.5335,0.5385,0.5337,0.5333,0.5322,0.5314,0.5345,0.5292,0.5292,0.523,0.5203,0.5195,0.5182,0.5213,0.5095,0.5083,0.5072,0.5034,0.5019,0.5201,0.5201,0.5202,0.5202,0,0.5273,0.5242,0.5204,0.5194,0.5179,0.5136,0.5161,0.5143,0.5166,0.5177,0.5128,0.5131,0.511,0.5097,0.5119,0.5037,0.5054,0.5089,0.5143,0.5051,0.5015,0.5001,0.5194,0.5195,0.5197,0.5198,0,0,0.5115,0.5124,0.5109,0.5105,0.5106,0.5082,0.5041,0.5022,0.5005,0.4996,0.4962,0.4925,0.4958,0.4948,0.497,0.4937,0.4849,0.4976,0.4977,0.4952,0.4758,0.473,0.4713,0.487,0.4868,0.4866,0.4758,0,0.5009,0.494,0.4968,0.4896,0.4868,0.4915,0.488,0.4876,0.4886,0.4862,0.4873,0.4846,0.4892,0.4886,0.4856,0.4866,0.481,0.4874,0.4838,0.4836,0.4836,0.4695,0.4666,0.4563,0.4744,0.4742,0.474,0,0.4876,0.4862,0.4788,0.4794,0.4783,0.475,0.4735,0.4712,0.4709,0.4718,0.4707,0.4737,0.4696,0.4751,0.4695,0.4738,0.4725,0.4728,0.4724,0.4721,0.4781,0.4686,0.4532,0.4516,0.4719,0.4721,0.4722,0,0.4766,0.473,0.4681,0.4676,0.4681,0.4657,0.4658,0.4658,0.4644,0.4631,0.4622,0.4604,0.4593,0.4578,0.4601,0.4639,0.4541,0.4598,0.4547,0.4546,0.4523,0.4524,0.4363,0.4516,0.4517,0.4517,0.4517,0,0.4644,0.4596,0.4632,0.4601,0.4549,0.4581,0.4528,0.4535,0.4534,0.4505,0.4545,0.4517,0.455,0.4524,0.4542,0.4492,0.4488,0.4493,0.4498,0.4489,0.4488,0.448,0.4487,0.4513,0.4514,0.4515,0.4515,0,0.4513,0.4534,0.4484,0.4494,0.4495,0.4456,0.4464,0.4436,0.4449,0.4412,0.4405,0.4425,0.4397,0.4419,0.4392,0.4404,0.4338,0.4354,0.4339,0.4343,0.429,0.4294,0.4117,0.4095,0.4264,0.4262,0.4261,0,0.4433,0.4397,0.4404,0.4387,0.4386,0.436,0.4346,0.4377,0.4361,0.4354,0.4327,0.4303,0.4285,0.4238,0.425,0.4229,0.4243,0.4183,0.424,0.4232,0.4241,0.4242,0.4239,0.4171,0.4169,0.4167,0.4166,0,0.4288,0.4301,0.428,0.4264,0.4247,0.4235,0.4226,0.421,0.4241,0.4222,0.4194,0.418,0.4153,0.4128,0.4111,0.4112,0.4143,0.4148,0.4135,0.4124,0.4117,0.4119,0.4306,0.4151,0.4153,0.4154,0.4155,0.4155,0.4179,0.415,0.415,0.4125,0.4122,0.4113,0.4087,0.4097,0.4075,0.4055,0.4075,0.4041,0.4038,0.4019,0.4016,0.3989,0.4014,0.3995,0.399,0.3985,0.3977,0.4122,0.3987,0.3987,0.3987,0.3988,0.3988,0,0.4036,0.4038,0.4016,0.4002,0.3983,0.4016,0.4008,0.3989,0.396,0.3955,0.3937,0.3905,0.3881,0.3891,0.387,0.3847,0.386,0.384,0.3841,0.3841,0.3956,0.3969,0.3829,0.3829,0.3829,0.3829,0.3829,0.3829,0.3959,0.391,0.3923,0.3873,0.3876,0.3844,0.3836,0.3828,0.3824,0.3787,0.3767,0.3774,0.3775,0.3755,0.3734,0.3737,0.3727,0.3701,0.3709,0.3817,0.3833,0.3847,0.386,0.3699,0.3699,0.3596,0.3595,0.3594]}]]